Location: Arrodets-la-Barthe
(43.0306°N, 0.2829°E)
Time: 19:20:38
(UTC+00:00)

USA 229 - Pass Details

Date: 24 October 2021
Orbit: 946 x 1266 km, 63.4° (Epoch: 25 November)

Event Time Altitude Azimuth Distance (km) Brightness Sun altitude
Rises 17:23:28 0° 180° (S) 3,610 6.6 -4.6°
Reaches altitude 10° 17:26:16 10° 170° (S) 2,687 5.8 -5.1°
Maximum altitude 17:31:34 29° 112° (ESE) 1,716 4.4 -6.1°
Drops below altitude 10° 17:37:07 10° 54° (NE) 2,837 5.4 -7.1°
Enters shadow 17:39:31 - 46° (NE) 3,628 6.0 -7.5°
